Satellite-Ground Cal/Val Site Overpasses Predictions

Prediction of Satellite NPP Overpassing Cal/Val Site: Antarctic Dome C

Ground Cal/Val Site Location: Latitude: -75.10, Longitude: 123.35; Satellite-Ground Site NADIR distance within 100 km.

Table of predicted overpasses for the next 14.0 days since TLE Epoch: 5/8/2020
Interval Starting Time Ending Time Minimum Distance Time Minimum Distance (km)
1 05/10/2020 07:31:08 05/10/2020 07:31:37 05/10/2020 07:31:22 2.38
2 05/13/2020 14:54:35 05/13/2020 14:55:04 05/13/2020 14:54:49 21.61
3 05/14/2020 14:35:52 05/14/2020 14:36:07 05/14/2020 14:36:00 85.49
4 05/15/2020 07:37:25 05/15/2020 07:37:52 05/15/2020 07:37:38 34.95
5 05/16/2020 07:18:40 05/16/2020 07:18:59 05/16/2020 07:18:49 75.24
6 05/18/2020 15:00:54 05/18/2020 15:01:17 05/18/2020 15:01:06 58.52
7 05/19/2020 14:42:03 05/19/2020 14:42:28 05/19/2020 14:42:15 50.71
8 05/20/2020 07:43:44 05/20/2020 07:44:05 05/20/2020 07:43:54 69.95


NCC Satellite Cal/Val Overpasses Prediction Service
